Regional Weather Roundup
Issued by NWS

Home | Current Version | Previous Version | Text Only | Print | Product List | Glossary On
Versions: 1 2 3 4 5 6 7 8 9 10 11 12 13 14 15 16 17 18 19 20 21 22 23 24 25 26 27 28 29 30 31 32 33 34 35 36 37 38 39 40 41 42 43 44 45 46 47 48 49 50
000
ASUS43 KOAX 240702
RWRNE

WEATHER ROUNDUP FOR NEBRASKA
NATIONAL WEATHER SERVICE OMAHA NE
200 AM CDT THU AUG 24 2017

NOTES: SATELLITE DATA IS BEING USED TO AUGMENT CLOUD COVER ABOVE
       12000 FEET.
       "FAIR" INDICATES FEW OR NO CLOUDS BELOW 12,000 FEET WITH NO
       SIGNIFICANT WEATHER AND/OR OBSTRUCTIONS TO VISIBILITY.


NEZ001>004-019>022-054>056-240800-
NEBRASKA PANHANDLE

CITY           SKY/WX    TMP DP  RH WIND       PRES   REMARKS
SCOTTSBLUFF    CLOUDY    67  49  52 NE6       30.03F
ALLIANCE       CLOUDY    64  53  67 N3        30.02R
CHADRON        CLOUDY    67  53  61 CALM      29.95F
GORDON         FAIR      64  59  83 CALM      30.00R
KIMBALL        PTCLDY    65  48  52 CALM      30.09S
SIDNEY         CLOUDY    59  52  77 W8        30.04S
$$

NEZ057>060-069>072-079>082-240800-
SOUTHWEST NEBRASKA

CITY           SKY/WX    TMP DP  RH WIND       PRES   REMARKS
NORTH PLATTE   CLEAR     68  50  52 S7        30.00S
IMPERIAL       CLOUDY    69  61  75 S10       30.01R
LEXINGTON      CLEAR     65  50  60 S8        30.02F
MCCOOK         CLEAR     67  52  58 S5        30.01F
OGALLALA       CLEAR     67  61  81 CALM      30.00S
$$

NEZ005>010-023>029-035>040-094-240800-
NORTH CENTRAL NEBRASKA

CITY           SKY/WX    TMP DP  RH WIND       PRES   REMARKS
VALENTINE      MOCLDY    71  56  58 S12       29.96R
AINSWORTH      PTCLDY    67  52  57 S12G17    29.96S
BROKEN BOW     CLOUDY    65  52  62 S9        30.01S
O`NEILL        CLEAR     66  56  71 S9        29.97S
ORD            PTCLDY    64  53  67 S6        29.99S
THEDFORD       PTCLDY    70  48  46 S13       29.98F
$$

NEZ041-046>049-061>064-073>077-083>087-240800-
SOUTH CENTRAL NEBRASKA

CITY           SKY/WX    TMP DP  RH WIND       PRES   REMARKS
GRAND ISLAND   CLEAR     63  56  78 S13       30.01F
AURORA         CLEAR     64  55  75 S12G17    30.02S
HASTINGS       CLEAR     63  53  70 S9        30.04S
HEBRON         CLEAR     63  56  76 S7        30.04F
HOLDREGE       CLEAR     61  51  70 S6        30.03F
KEARNEY        CLEAR     62  54  74 S12       30.03S
$$

NEZ011>018-030>034-042>045-240800-
NORTHEAST NEBRASKA

CITY           SKY/WX    TMP DP  RH WIND       PRES   REMARKS
NORFOLK        CLEAR     61  58  90 S7        30.00S
ALBION         CLEAR     63  57  81 SE6       30.01S
BLAIR          MOCLDY    66  58  77 S8        30.03F
COLUMBUS       CLEAR     64  57  78 S9        30.02S
FREMONT        CLEAR     64  57  79 SE8       30.02F
TEKAMAH        MOCLDY    62  59  90 S5        30.00F
WAYNE          CLEAR     61  59  91 S7        30.00S
$$

NEZ050>053-065>068-078-088>093-240800-
SOUTHEAST NEBRASKA

CITY           SKY/WX    TMP DP  RH WIND       PRES   REMARKS
LINCOLN        CLEAR     61  57  87 S7        30.03F
OMAHA EPPLEY   PTCLDY    66  58  75 S10       30.03F
BEATRICE       CLEAR     64  57  76 S8        30.04F
FALLS CITY     PTCLDY    60  58  92 CALM      30.05F
NEBRASKA CITY  CLEAR     61  61  99 S6        30.05F
PLATTSMOUTH    PTCLDY    61  57  88 SE7       30.05F
$$

NEZ044-045-051>053-067-240800-
OMAHA AREA

CITY           SKY/WX    TMP DP  RH WIND       PRES   REMARKS
OMAHA EPPLEY   PTCLDY    66  58  75 S10       30.03F
BLAIR          MOCLDY    66  58  77 S8        30.03F
FREMONT        CLEAR     64  57  79 SE8       30.02F
MILLARD        CLEAR     65  59  82 SE6       30.03F
OFFUTT AFB     PTCLDY    61  58  88 E5        30.04F
PLATTSMOUTH    PTCLDY    61  57  88 SE7       30.05F
WAHOO          FAIR      59  58  96 SE7       30.02F
$$




USA.gov is the U.S. government's official web portal to all federal, state and local government web resources and services.